Regional Weather Roundup
Issued by NWS

Home | Current Version | Previous Version | Text Only | Print | Product List | Glossary Off
Versions: 1 2 3 4 5 6 7 8 9 10 11 12 13 14 15 16 17 18 19 20 21 22 23 24 25 26 27 28 29 30 31 32 33 34 35 36 37 38 39 40 41 42 43 44 45 46 47 48 49 50

000
ASUS45 KTFX 011204
RWRMT
MONTANA HOURLY WEATHER ROUNDUP
NATIONAL WEATHER SERVICE GREAT FALLS MT
604 AM MDT WED OCT 1 2014

NOTE: "FAIR" INDICATES FEW OR NO CLOUDS BELOW 12000 FEET WITH NO
SIGNIFICANT WEATHER AND/OR OBSTRUCTIONS TO VISIBILITY.

* THESE STATIONS ARE NOT UNDER NWS QUALITY CONTROL. THEY DO NOT
   REPORT WEATHER SUCH AS PRECIPITATION OR FOG.

MTZ001>007-043-011300-
WEST OF THE DIVIDE
CITY           SKY/WX    TMP DP  RH WIND       PRES   REMARKS
KALISPELL      CLOUDY    45  43  93 CALM      30.00R
MISSOULA       CLOUDY    45  39  80 NW5       30.05R
BUTTE          LGT RAIN  37  34  89 CALM      30.02R
MULLAN PASS    CLOUDY    34  32  92 VRB5      30.03S WCI  29
* ESSEX        N/A       42  41  96 N/A        N/A
* LINCOLN      N/A       41  35  79 S7         N/A
* LOOKOUT PASS N/A       35  35 100 N/A        N/A
* POLSON       N/A       42  37  83 SE1        N/A
* RONAN APT    PTCLDY    46  41  83 N/A        N/A
* SEELEY LAKE  N/A       36  35  96 N1         N/A
* THOMP F APT  CLEAR     36  26  67 N11G19     N/A   WCI  28
* YAAK HILL    N/A       39  37  93 N/A        N/A
$$

MTZ008-052>055-011300-
SOUTHWEST MONTANA
CITY           SKY/WX    TMP DP  RH WIND       PRES   REMARKS
BOZEMAN        CLOUDY    39  36  89 CALM      29.99R
DILLON         CLOUDY    41  32  70 SW9       30.00R
W YELLOWSTONE  CLOUDY    32  32 100 CALM      29.99R
* THREE FORKS  MOCLDY    41  16  36 N/A        N/A
* BOULDER HILL N/A       40  25  55 NE2        N/A
* MONIDA PASS  N/A       30  28  92 W7         N/A   WCI  23
* RAYNOLDS PAS N/A       33 -14  12 N8         N/A   WCI  26
* WHITEHALL    N/A       40  34  79 W3         N/A
* WISE RIVER   N/A       38  33  82 W5         N/A   WCI  34
$$

MTZ009>010-012-014-046-048-049-054-011300-
EAST SLOPES AND CENTRAL MONTANA
CITY           SKY/WX    TMP DP  RH WIND       PRES   REMARKS
CUT BANK       PTCLDY    37  34  89 W9        29.92R WCI  30
GREAT FALLS    LGT RAIN  43  41  93 SW9       29.93R
HELENA         LGT RAIN  46  36  68 W8        29.96R
MALMSTROM AFB  LGT RAIN  45  41  86 SW12      29.95R
* CONRAD       PTCLDY    46  37  71 W9         N/A
* DEARBORN     N/A       44  41  89 N/A        N/A
* EAST GLACIER N/A       38  33  82 NW6        N/A   WCI  33
* MONARCH      N/A       38  33  82 W8         N/A   WCI  32
* PENDROY      N/A       40  33  76 NW12       N/A   WCI  33
* ROGERS PASS  N/A       38  34  86 SE2G9      N/A
* SAINT MARY   N/A       36  36 100 S5         N/A   WCI  32
* SWEET GRASS  N/A       39  38  96 W14        N/A   WCI  31
$$

MTZ011-013-016-021-035-040-045-047-050-051-011300-
NORTH CENTRAL MONTANA
CITY           SKY/WX    TMP DP  RH WIND       PRES   REMARKS
HAVRE          CLOUDY    45  39  80 W12       29.86R
LEWISTOWN      CLOUDY    45  39  80 W8        29.90R
* DENTON       N/A       45  40  83 W16G22     N/A
* JUDITH GAP   N/A       41  39  93 NW10G15    N/A
* LOMA         N/A       47  41  80 SW8        N/A
$$

MTZ017>020-022>027-061-062-011300-
NORTHEAST MONTANA
CITY           SKY/WX    TMP DP  RH WIND       PRES   REMARKS
GLASGOW        CLOUDY    48  45  89 W14G24    29.71R
GLENDIVE       CLOUDY    50  46  86 W16G26    29.72R
JORDAN         CLEAR     48  43  83 W18G26    29.78R
SIDNEY         CLOUDY    54  48  80 W15G23    29.66R
WOLF POINT     CLOUDY    54  46  74 W18       29.69R
* BEAVER HILL  N/A       50  47  89 W21G31     N/A
* CIRCLE       N/A       49  47  93 W13        N/A
* LINDSAY DVD  N/A       47  46  96 W17G30     N/A
* NAVAJO       N/A       49  48  96 NW19G28    N/A
$$

MTZ028>042-056>058-011300-
SOUTHCENTRAL AND SOUTHEAST MONTANA
CITY           SKY/WX    TMP DP  RH WIND       PRES   REMARKS
BAKER          CLOUDY    48  46  93 W20G26    29.74R
BILLINGS       MOCLDY    48  36  63 W15       29.90R
LIVINGSTON     PTCLDY    41  32  70 W13       29.95R
MILES CITY     CLOUDY    52  41  66 NW18G28   29.79R
* LAUREL APT   MOCLDY    45  30  56 N/A        N/A
* ROUNDUP APT  PTCLDY    46  36  68 W8         N/A
* ALZADA       N/A       49  46  89 W11        N/A
* HYSHAM       N/A       47  38  71 W12        N/A
* LAME DEER    N/A       45  40  83 NW12G23    N/A
* REED POINT   N/A       47  29  50 W12G17     N/A
* ROSCOE HILL  N/A       40  20  45 W1         N/A
$$

REGIONAL REPORTS...DAKOTAS
CITY           SKY/WX    TMP DP  RH WIND       PRES   REMARKS
WILLISTON      CLOUDY    54  48  80 W20       29.57R
DICKINSON      CLOUDY    52  48  86 W20       29.63R
BEACH          N/A       50  50 100 W21G32    29.70R
TIOGA          LGT RAIN  50  50 100 W18G25    29.55R
WATFORD CITY   CLOUDY    52  52 100 W22G29    29.58R
BISMARCK       MOCLDY    57  54  90 W15       29.59R
GRAND FORKS    CLOUDY    61  54  78 SW12G21   29.55R
FARGO          PTCLDY    59  55  87 S14       29.62R
BUFFALO SD     MOCLDY    52  48  86 W22G29    29.68R
RAPID CITY     MOCLDY    50  45  83 CALM      29.77R
$$

REGIONAL REPORTS...WYOMING/IDAHO/WASHINGTON
CITY           SKY/WX    TMP DP  RH WIND       PRES   REMARKS
GILLETTE       MOCLDY    46  43  89 NW12      29.85R
SHERIDAN       CLOUDY    48  41  77 NW14      29.88R
CODY           CLOUDY    43  43 100 CALM      29.90R
YELLOWSTONE LA CLOUDY    30  28  92 NW5       29.99R WCI  25
SALMON         CLOUDY    43  37  79 S3        30.05R
MULLAN PASS    CLOUDY    34  32  92 VRB5      30.03S WCI  29
SAND POINT     FOG       37  37 100 CALM      30.06R VSB M1/4
SPOKANE        CLEAR     39  34  82 S8        30.06R WCI  33

$$




USA.gov is the U.S. government's official web portal to all federal, state and local government web resources and services.